STARLINK-2214, 48566

Orbit data source: Space-Track

STARLINK-2214, 48566 is a payload satellite owned by SpaceX/Seattle (US) in LEO that was launched on Sat, 15 May 2021 UTC via an FALCON 9 launch vehicle from the Air Force Eastern Test Range (AFETR). Payload-class satellites include a variety of spacecraft equipped with specific instruments for various scientific and technological missions. These include communications satellites like Starlink; space stations such as the ISS; scientific satellites like the Hubble; Earth observation satellites from companies like Planet Labs, Umbra, and HawkEye 360; GPS; miniature CubeSats for education and research; and military/defense satellites.

Loading next visibility...
Identifier
48566, 2021-041P
Orbit
LEO
Country
Flag of USUS
Related business
Manufacturer
SpaceX/Seattle
Mission
Operational Commercial Communications
Bus & Motor
STARLINK, Unknown motor
Mass
260 kg wet, ~248 kg dry
Launch date (UTC)
2021-05-15 (5 years ago)
Launch vehicle
FALCON 9
Launch site
Air Force Eastern Test Range (AFETR)
Object type
Payload
Rocket body
Debris
Shape & HBR
Box + 1 Pan, 10.1 m
Radar Cross Section
13.562 m², Large (>1 m²)

Expand to show TLE details & history
Last TLE update: 21 hours ago

TLE from 21 hours ago
0 STARLINK-2214
1 48566U 21041P   25349.18497808  .00000526  00000-0  54233-4 0  9999
2 48566  53.0550 160.9472 0001516  89.3375 270.7788 15.06392531252324
Epoch: 2025-12-15T04:26Z
TLE epoch observation values (Epoch: 2025-12-15T04:26:22.106Z)
Latitude
0.00002°
Longitude
10.26793°
Altitude
548.1 km
Speed
7.589 km/s
True Right ascension
10h 43m 47s
True Declination
0° 00' 00"
Sunlit
Object was in daylight at epoch
Visualization orbit readout
Latitude
Unknown
Longitude
Unknown
Altitude
Unknown
Speed
Unknown
Apparent Right ascension
Unknown
Apparent Declination
Unknown
Sunlit
N/A
Visualization observer readout
Local Sidereal Time
00:19:41
Azimuth
Unknown
Elevation
Unknown
Doppler factor
Unknown
Orbital elements
Apogee altitude
548.555 km
Perigee altitude
546.455 km
Semi-major axis
6,925.642 km
Eccentricity
0.00015
Inclination
53.055°
RAAN
160.9472°
Arg. of periapsis
89.3375°
True anomaly
270.76143°
Mean anomaly
270.7788°
Eccentric anomaly
270.77011°
Mean motion
3.76576 °/min
Orbital period
95.6 mins
BSTAR
0.000054233
Loading maneuver chart data...
Computing Atmospheric mass density...
Loading historical data...
Loading historical data...
Loading historical data...
Loading historical data...
Loading historical data...
Loading historical data...
Loading historical data...

Documentation

Showing up to 5 results
|